Wind_Speed
3 3 3 1 1 2 2 3 3 3 3 5 4 4 3 4 4 4 7 6 6 3 3 8 8 7 8 7 7 6 5 8 7 6 5 5 5 4 4 4 3 3 3
3 2 3 3 2 2 3 1 1 2 3 1 2 4 2 4 2 2 5 7 5 5 3 4 8 9 9 8 8 8 7 6 7 6 6 6 7 7 6 5 5 5 5
6 4 2 3 2 2 1 1 1 1 0 1 5 3 6 5 4 2 3 6 6 6 4 3 4 7 9 8 9 8 9 10 8 6 8 7 8 8 8 7 7 7 6
8 4 3 2 1 1 1 1 1 3 3 2 5 1 1 3 4 5 6 3 2 6 6 5 4 4 5 8 9 10 10 10 10 8 7 9 8 8 9 9 8 8 10
9 7 5 3 2 1 1 1 2 3 3 2 3 2 3 2 3 10 7 4 4 2 5 5 4 4 3 3 4 7 10 11 11 10 9 10 10 9 8 8 9 10 11
11 10 7 5 3 2 0 1 2 3 3 3 2 5 6 6 4 6 8 5 4 5 5 1 2 5 2 5 6 5 5 7 8 10 11 11 10 10 9 8 8 9 11
11 11 10 7 4 3 2 0 1 2 2 3 5 7 6 7 4 6 3 6 5 3 3 2 1 1 2 2 2 3 4 4 4 5 6 7 7 7 8 9 10 10 11
13 12 11 8 6 4 3 1 1 1 1 1 0 1 5 9 7 6 1 3 4 5 5 3 3 2 2 5 1 2 2 2 2 2 2 1 2 3 4 7 9 10 11
13 12 12 11 8 5 3 2 3 2 2 3 3 3 2 3 8 7 6 3 4 4 4 5 5 5 5 4 5 4 6 6 6 6 6 6 5 4 4 1 1 1 1
14 13 12 10 10 8 5 3 4 4 3 4 5 6 4 7 3 6 7 7 6 5 4 3 4 5 5 5 7 7 8 10 9 8 8 8 8 6 5 3 2 1 1
17 15 13 12 11 11 8 6 6 7 6 4 5 5 5 6 6 6 4 10 9 8 7 6 4 4 4 4 5 6 10 9 7 5 6 7 6 5 5 4 4 4 4
19 19 17 14 13 12 11 10 9 9 9 7 7 6 6 6 7 8 6 4 6 10 9 8 8 7 7 8 7 9 9 8 6 4 2 1 1 2 2 2 2 3 4
19 20 20 18 17 15 14 12 11 11 12 10 10 9 8 7 5 7 6 3 5 6 7 9 10 11 11 11 10 11 11 10 8 6 5 4 4 5 6 6 8 8 9
19 17 20 21 19 17 16 15 13 12 13 12 11 12 9 9 8 7 7 6 4 6 7 8 6 9 11 11 11 12 14 14 14 12 12 11 11 11 11 11 12 13 14
20 20 21 22 20 19 17 16 15 14 15 14 13 13 14 11 10 10 9 9 9 5 5 9 8 6 6 8 9 9 11 13 15 17 16 15 14 15 16 16 16 17 17
26 21 23 23 22 20 19 19 17 17 17 17 17 16 15 14 12 12 11 11 10 10 6 4 6 4 6 5 6 6 8 13 13 12 13 14 16 17 17 17 17 16 16
28 28 26 24 24 23 23 22 21 19 21 20 19 19 18 16 16 15 14 13 12 12 11 8 7 6 7 7 7 7 8 9 11 10 13 16 17 17 16 16 16 16 16
32 31 30 27 26 25 25 25 25 24 24 23 23 21 20 18 19 17 16 15 14 12 13 10 8 8 9 11 11 11 10 11 10 10 13 16 16 13 14 16 18 17 16
35 33 32 32 30 29 28 28 27 27 26 26 25 25 23 22 22 20 20 17 16 15 14 14 10 10 10 12 11 10 10 10 11 13 16 13 14 15 16 15 15 14 16
37 36 36 34 34 33 31 31 30 29 29 28 28 27 26 26 25 22 20 19 16 14 13 13 14 14 12 12 12 13 13 13 12 11 13 16 14 15 18 15 16 17 18
38 38 37 36 36 35 35 35 34 32 31 31 29 30 28 27 27 25 23 22 19 17 16 16 17 15 14 14 14 13 13 13 10 11 12 12 12 11 13 14 16 19 12
38 38 37 38 38 38 38 40 38 35 34 32 32 30 29 29 30 32 31 23 23 22 21 18 18 17 14 14 14 14 14 12 10 0 10 12 10 14 14 17 13 12 16
38 39 39 39 40 42 43 46 48 40 34 33 32 30 28 28 30 27 33 32 30 29 25 21 21 18 15 16 14 11 13 12 12 8 10 13 13 16 16 15 10 14 18
38 38 39 40 40 42 45 47 48 45 34 32 33 32 30 29 28 28 26 28 30 29 31 29 24 20 19 15 15 13 12 11 13 12 10 12 13 14 13 14 14 12 13
32 34 34 34 39 40 45 47 49 41 39 37 35 35 34 33 32 33 26 26 26 30 27 29 27 22 20 17 15 13 14 12 10 13 9 10 12 11 13 16 13 10 13
32 32 34 36 37 38 41 48 51 42 37 37 37 34 39 37 35 36 36 30 28 25 24 20 26 27 22 20 20 17 13 14 13 11 4 7 13 12 12 13 10 16 14
Wind_Direction
174 174 153 170 101 54 30 25 54 30 141 80 76 37 75 80 77 57 104 93 100 128 180 194 195 194 196 193 195 196 201 192 196 199 212 213 215 226 246 264 252 263 286
203 169 195 195 262 303 69 103 33 50 246 350 110 21 22 108 66 22 109 121 95 98 139 187 201 198 203 201 201 209 213 211 216 226 232 228 234 237 247 257 256 262 281
230 186 211 231 262 327 357 148 202 145 105 150 130 69 95 82 74 86 164 129 134 88 89 143 185 207 206 212 217 217 223 221 223 235 240 242 240 251 251 260 267 268 279
235 241 242 231 56 165 274 232 303 306 25 84 148 343 79 88 88 102 111 139 122 132 104 108 141 179 199 211 226 232 228 229 231 236 240 248 246 257 272 269 269 282 287
229 235 248 252 311 42 110 183 331 2 85 90 195 177 70 68 196 90 104 114 103 147 116 106 125 140 159 199 215 231 235 239 241 235 240 252 254 258 265 267 271 279 288
234 234 243 245 258 280 195 118 345 58 43 16 17 98 103 120 136 99 102 119 96 172 170 125 190 151 175 197 213 234 234 237 244 245 243 253 260 260 260 269 279 288 293
231 235 237 234 221 248 303 282 75 135 105 64 145 132 113 134 140 109 93 80 96 106 107 137 172 151 115 117 146 212 231 234 242 250 255 256 251 247 249 246 247 261 280
225 222 222 225 221 237 216 209 213 107 85 131 128 219 145 153 140 124 173 99 72 102 106 100 105 134 147 113 104 143 149 147 137 129 153 205 220 228 238 243 257 260 264
213 215 228 225 221 230 241 198 207 239 39 148 182 305 169 191 155 170 171 159 166 125 113 102 109 128 135 138 113 117 135 129 114 103 95 93 95 98 107 127 85 327 319
213 221 225 225 221 231 236 221 217 228 226 166 189 220 293 351 251 155 187 194 200 198 169 166 130 136 135 132 145 141 127 119 112 100 85 72 64 64 70 75 77 64 349
217 218 220 219 218 219 218 223 211 215 214 232 214 198 215 219 254 296 187 184 215 221 204 209 195 187 175 162 149 152 149 145 141 113 74 59 57 59 58 51 38 21 8
220 222 223 219 221 221 216 218 216 215 216 211 214 214 215 211 207 224 242 245 230 188 223 225 222 226 217 214 208 202 193 188 181 172 153 203 6 21 23 4 339 326 320
220 217 218 220 220 220 216 216 216 215 214 212 213 215 221 229 237 237 251 248 251 213 221 233 236 232 229 230 229 228 231 226 236 246 253 277 293 292 281 291 304 304 304
220 220 217 215 215 214 213 211 214 217 216 213 214 219 224 223 219 219 230 239 214 231 215 247 229 233 235 237 245 247 241 247 244 251 256 262 271 281 287 289 294 296 296
219 214 211 211 212 210 209 208 217 215 213 213 219 217 218 222 219 222 225 229 258 258 223 179 247 216 242 239 248 250 242 248 260 255 260 271 279 276 280 290 296 299 296
216 211 209 210 211 212 209 207 216 216 212 215 219 217 216 220 221 223 226 229 236 259 278 225 222 224 219 230 249 230 237 241 262 259 260 268 273 278 278 279 284 288 288
213 212 208 211 213 215 213 211 213 216 215 215 217 219 219 219 222 223 226 228 229 233 247 250 242 213 220 232 233 223 238 255 264 269 267 269 271 269 275 280 283 287 287
212 212 210 210 212 214 215 213 211 216 217 217 219 220 221 220 221 227 224 227 228 227 242 241 252 226 234 235 232 236 246 265 265 268 267 274 269 268 268 275 279 283 284
211 212 212 209 210 213 213 216 216 217 219 221 221 221 220 217 219 223 221 225 228 227 226 246 252 232 238 228 232 246 246 262 264 268 276 279 271 271 274 277 277 272 283
208 209 210 209 209 211 213 216 218 220 221 223 224 223 221 217 218 218 219 223 226 227 224 235 242 240 226 232 238 256 250 245 259 273 280 274 259 268 272 275 271 279 287
210 211 209 209 210 212 214 214 216 219 220 223 224 224 224 222 220 216 215 218 218 221 233 229 241 242 239 229 229 252 261 276 271 268 279 276 250 266 278 275 267 270 272
209 210 211 209 208 213 219 217 214 218 220 221 222 223 225 225 223 223 219 215 217 216 227 235 240 242 245 242 243 254 260 273 276 256 272 281 274 281 285 288 285 291 293
209 211 211 211 211 213 217 217 219 217 220 221 221 221 222 225 224 223 225 226 224 223 227 228 241 254 251 236 245 234 251 255 267 279 269 280 287 286 293 295 292 300 299
212 212 213 213 213 216 218 219 220 218 222 224 224 223 221 223 221 217 218 221 223 223 228 225 230 238 244 245 230 237 248 250 262 264 248 273 291 289 292 292 297 302 305
215 219 222 222 219 219 218 218 219 214 222 224 223 223 221 221 222 220 214 219 218 222 227 230 223 232 238 231 221 226 235 250 263 260 210 265 287 289 289 294 295 289 305
219 220 222 224 226 228 223 220 216 213 222 225 226 225 224 220 219 217 213 209 214 213 213 208 220 224 228 226 222 222 245 247 252 264 264 253 289 300 297 293 290 301 306
Height
857 857 858 857 858 859 860 860 861 860 859 859 858 858 858 858 859 857 860 863 864 865 866 867 869 870 871 872 873 874 875 876 876 878 878 879 879 879 880 879 879 879 879
857 858 857 858 859 858 858 862 861 861 860 859 860 859 857 857 860 860 858 863 864 865 866 866 867 868 870 871 872 873 874 875 876 877 877 878 878 879 879 880 879 879 879
855 857 858 857 858 859 859 861 861 860 860 859 860 859 858 859 858 860 860 860 863 865 866 866 867 868 870 870 872 872 873 873 874 875 876 877 877 878 878 879 880 880 880
854 855 856 856 857 858 859 860 860 857 857 859 859 858 858 859 861 861 861 862 863 862 865 866 866 867 868 869 870 870 871 872 872 874 875 876 876 876 878 878 879 879 879
853 854 855 855 856 857 858 859 858 858 858 857 856 858 859 859 859 859 862 863 865 864 863 866 867 867 868 868 868 868 869 870 871 871 872 873 874 875 876 876 876 877 877
851 853 854 855 855 855 856 857 858 859 859 858 856 858 860 860 860 859 861 862 864 864 864 866 866 866 867 867 868 868 867 868 868 869 870 870 871 872 873 873 874 874 875
849 850 852 854 855 855 855 857 857 859 858 859 857 857 860 861 862 862 862 861 864 863 864 866 864 866 866 867 867 867 867 867 867 867 867 867 867 868 868 868 868 868 869
846 847 849 851 853 853 855 856 857 856 857 859 856 853 854 859 860 861 864 863 864 864 865 866 867 867 866 866 867 866 866 866 866 866 866 866 866 866 866 865 865 864 865
843 844 847 849 851 853 852 855 857 858 855 859 859 855 854 853 854 860 864 863 866 865 867 867 867 866 866 866 865 865 865 865 866 867 866 866 866 866 866 865 865 864 864
841 843 845 847 849 850 852 853 855 856 857 856 859 859 858 856 850 853 860 861 864 865 867 867 867 867 868 866 866 867 867 868 868 868 868 868 869 870 870 869 868 868 867
837 840 842 844 846 848 849 852 853 854 855 854 855 857 858 859 859 854 849 857 861 861 863 865 865 866 868 868 868 868 867 866 866 868 871 873 872 871 870 871 871 870 869
832 836 838 840 843 846 847 849 850 852 853 854 854 855 854 854 854 855 853 854 853 857 861 862 864 864 864 864 865 865 865 865 866 866 868 867 868 869 870 870 868 869 869
826 829 833 836 839 841 844 846 848 849 850 852 854 854 854 853 853 853 852 851 853 854 858 859 860 860 861 862 862 864 865 866 868 868 866 868 869 870 868 867 869 868 867
820 824 828 831 834 837 839 842 844 845 847 849 851 852 852 852 853 854 853 852 853 852 854 857 856 858 859 860 862 862 864 864 865 866 864 864 864 866 866 866 866 866 865
814 819 822 826 829 832 834 838 840 841 844 845 847 848 849 849 850 851 852 852 850 846 846 852 854 856 858 859 859 861 863 864 864 863 864 865 865 864 864 864 864 862 861
809 812 816 820 824 827 829 832 835 837 839 840 842 844 845 846 848 849 849 850 850 850 847 848 852 852 856 858 859 860 861 860 860 861 862 862 859 860 859 857 856 855 854
802 806 809 814 818 821 824 826 829 831 833 835 837 839 841 843 844 845 846 847 848 848 848 847 851 853 856 857 857 856 856 858 857 857 857 856 856 853 854 853 851 851 851
794 798 802 806 810 814 817 819 822 824 827 829 831 834 836 839 840 840 842 844 845 846 848 848 847 850 854 853 854 853 854 853 853 851 852 854 853 852 851 852 851 850 847
783 789 793 796 800 804 809 812 814 817 820 822 825 827 830 832 833 835 838 839 842 843 845 846 846 847 846 848 850 853 853 851 850 850 849 848 848 849 848 848 847 846 846
772 777 781 786 791 795 800 804 807 809 812 814 817 819 822 824 826 830 833 836 838 840 842 843 842 840 842 845 847 845 845 845 845 845 846 845 844 844 842 842 841 840 840
763 767 772 777 782 786 789 792 796 800 803 805 809 811 814 817 820 823 826 829 833 837 837 837 837 838 838 838 839 840 840 842 842 843 842 840 839 838 838 837 835 834 835
752 757 762 766 770 773 776 781 786 790 793 797 800 803 808 811 814 815 819 824 827 829 830 831 832 831 833 836 836 837 837 837 838 840 840 836 836 835 835 834 831 832 831
742 745 750 754 756 759 763 766 771 778 783 788 791 795 800 803 805 809 813 816 820 821 825 827 828 829 829 832 834 834 837 837 838 838 838 835 832 830 829 828 827 829 828
731 736 739 742 746 747 752 758 765 772 777 780 783 786 789 793 796 800 805 807 812 814 816 819 820 823 826 830 831 833 834 835 835 834 835 834 830 828 828 826 825 823 824
726 729 736 739 738 738 740 746 754 761 765 767 770 773 777 781 785 790 796 800 803 804 808 814 816 819 821 824 828 829 830 831 827 828 828 830 829 826 826 824 822 818 818
717 721 723 726 730 732 732 734 741 749 754 756 760 763 765 767 772 776 780 786 793 797 802 804 809 813 817 820 822 823 825 824 824 821 824 827 826 824 821 818 819 817 813